Find OneWeb SL0699

NORAD ID: 61605 Int'l Des: 2024-188 Owner: ONEWEBE Country: UK Constellation: oneweb operational
LEOCIRCULARPOLARONEWEB_TYPE

当前视图

正在加载3D地球...

About OneWeb SL0699

OneWeb SL0699 (NORAD 61605) is a oneweb constellation satellite launched Oct 20, 2024 by ONEWEBE of UK. It operates in LEO, CIRCULAR, POLAR, ONEWEB_TYPE orbit with a mass of 148.00 kg.

关于 OneWeb SL0699

正在加载描述...

即将过境

Passes for default location (London). Set your location on the main map for personalized predictions.

高度历史

Loading altitude history...

两行轨道根数

1 61605U 24188M 26169.05539489 .00003175 00000-0 90508-2 0 9998
2 61605 87.8833 36.0934 0001640 104.9702 255.1607 13.10406651 83426
Epoch: Jun 18, 2026 • Age: 15 hours

当前状态

高度 1233.9 km
速度 7.25 km/s
星下点 80.88°N, 48.41°E
发射日期 Oct 20, 2024
运行时间 1.6 years
类型 internet

技术详情

分类 Payload
质量 148.00 kg
干质量 140.00 kg
总质量 148.00 kg
长度 1.30 m
直径 1.00 m
跨度 5.00 m
形状 Trapezoid+2 pan
制造商 ONEWUS
平台类型 ARROW
阶段状态 In Orbit
所有者/国家 ONEWEBE/UK

Most Searched